Preview of NWS' New Version of Forecast
This preview is not operational and should not be used for support decisions.

Regional Weather Roundup (RWR)

Issued by National Weather Service (NWS)

                            
000
ASUS43 KLSX 192157
RWRMO 

WEATHER SUMMARY FOR MISSOURI
NATIONAL WEATHER SERVICE SPRINGFIELD MO
500 PM CDT FRI APR 19 2019

NOTE: "FAIR" INDICATES FEW OR NO CLOUDS BELOW 12,000 FEET WITH NO
       SIGNIFICANT WEATHER AND/OR OBSTRUCTIONS TO VISIBILITY.
       CURRENT SKY AND/OR WEATHER CONDITIONS ARE NOT AVAILABLE FOR
       CHILLICOTHE AND FARMINGTON.

MOZ001>031-035>038-043-044-053-054-192300-
...NORTHERN AND WESTERN MISSOURI...
  
CITY           SKY/WX    TMP DP  RH WIND       PRES   REMARKS
KANSAS CTY INT SUNNY     63  34  33 N12G24    29.97F                  
LEE'S SUMMIT   SUNNY     61  34  36 N18G29    29.97F                  
ST JOSEPH      SUNNY     66  31  27 N15G28    29.98F                  
CHILLICOTHE      N/A     65  31  28 N13G24    29.96F                  
     
$$
MOZ066>068-077>081-088>096-101>105-192300-
...SOUTHWEST MISSOURI...
  
CITY           SKY/WX    TMP DP  RH WIND       PRES   REMARKS
SPRINGFIELD    MOSUNNY   60  32  34 NW25G35   29.89S                  
JOPLIN         MOSUNNY   60  36  40 N18G28    29.96S                  
BRANSON        MOSUNNY   59  32  36 N25G37    29.88S                  
               
$$
MOZ032>034-039>042-045>050-055>058-069>072-192300-
...CENTRAL MISSOURI...  
  
CITY           SKY/WX    TMP DP  RH WIND       PRES   REMARKS
COLUMBIA       NOT AVBL                                               
JEFFERSON CITY SUNNY     61  25  25 N24G36    29.87S                  
ROLLA          MOSUNNY   57  32  38 N24G35    29.83F                  
SEDALIA        SUNNY     57  30  35 N24G36    29.93F                  
WARRENSBURG    SUNNY     61  30  31 N17G24    29.95S                  
               
$$
MOZ051-052-059>065-192300-
...EAST CENTRAL MISSOURI...
  
CITY           SKY/WX    TMP DP  RH WIND       PRES   REMARKS
ST LOUIS INTL  PTSUNNY   58  36  43 N23G33    29.78F                  
                   
$$
MOZ072>076-082>087-097>100-106>115-192300-
...SOUTH CENTRAL AND SOUTHEAST MISSOURI...
  
CITY           SKY/WX    TMP DP  RH WIND       PRES   REMARKS
CAPE GIRARDEAU CLOUDY    50  38  63 N16G31    29.72S                  
POPLAR BLUFF   CLOUDY    50  40  68 N9        29.76S                  
WEST PLAINS    PTSUNNY   58  34  40 N15G35    29.82S                  
                                       
$$